This is the latest recevied weather packets stored in our database for station/object AJ5AG. If no packets are shown the sender has not sent any weather packets the latest 1 day(s).
| Time | Temp. | Humidity | Pressure | Rain* | Wind** | Luminosity | Snow |
|---|---|---|---|---|---|---|---|
| 1777991597 | 23.89° C | 87% | 1011.9 hPa | 0 mm | 0.45 m/s, 115° | 79 W/m² | - |
| 1777991294 | 23.89° C | 87% | 1011.9 hPa | 0 mm | 0.45 m/s, 209° | 89 W/m² | - |
| 1777990992 | 23.33° C | 87% | 1011.6 hPa | 0 mm | 0 m/s | 117 W/m² | - |
| 1777990689 | 23.33° C | 88% | 1011.6 hPa | 0 mm | 0 m/s | 88 W/m² | - |
| 1777990386 | 23.33° C | 88% | 1011.8 hPa | 0 mm | 0.45 m/s, 74° | 83 W/m² | - |
| 1777990082 | 22.78° C | 88% | 1011.5 hPa | 0 mm | 0 m/s | 61 W/m² | - |
| 1777989778 | 22.78° C | 88% | 1011.4 hPa | 0 mm | 0.45 m/s, 87° | 57 W/m² | - |
| 1777989476 | 22.78° C | 88% | 1011.4 hPa | 0 mm | 0 m/s | 55 W/m² | - |
| 1777989172 | 22.78° C | 88% | 1011.3 hPa | 0 mm | 0 m/s | 58 W/m² | - |
| 1777988868 | 22.78° C | 89% | 1011.4 hPa | 0 mm | 0 m/s | 46 W/m² | - |
| 1777988565 | 22.78° C | 89% | 1011.3 hPa | 0 mm | 0 m/s | 39 W/m² | - |
| 1777988262 | 22.78° C | 89% | 1011.3 hPa | 0 mm | 0 m/s | 42 W/m² | - |
| 1777987959 | 22.78° C | 89% | 1011.4 hPa | 0 mm | 0 m/s | 46 W/m² | - |
| 1777987654 | 22.78° C | 89% | 1011.4 hPa | 0 mm | 0.45 m/s, 75° | 40 W/m² | - |
| 1777987352 | 22.78° C | 89% | 1011.3 hPa | 0 mm | 0 m/s | 54 W/m² | - |
| 1777987049 | 22.22° C | 89% | 1011.5 hPa | 0 mm | 0 m/s | 31 W/m² | - |
| 1777986746 | 22.22° C | 89% | 1011.6 hPa | 0 mm | 0 m/s | 22 W/m² | - |
| 1777986444 | 22.22° C | 90% | 1011.8 hPa | 0 mm | 0.45 m/s, 106° | 29 W/m² | - |
| 1777986142 | 22.22° C | 90% | 1011.6 hPa | 0 mm | 0 m/s | 26 W/m² | - |
| 1777985838 | 22.22° C | 90% | 1011.8 hPa | 0 mm | 0 m/s | 36 W/m² | - |
| 1777985536 | 22.22° C | 90% | 1011.5 hPa | 0 mm | 0 m/s | 18 W/m² | - |
| 1777985232 | 22.22° C | 90% | 1011.5 hPa | 0 mm | 0 m/s | 24 W/m² | - |
| 1777984929 | 22.22° C | 90% | 1011.3 hPa | 0 mm | 0 m/s | 32 W/m² | - |
| 1777984625 | 22.22° C | 90% | 1011.2 hPa | 0 mm | 0 m/s | 14 W/m² | - |
| 1777984322 | 22.22° C | 90% | 1011.2 hPa | 0 mm | 0 m/s | 16 W/m² | - |
* Rain latest hour (hover to see other rain measurements)
** Current wind speed in m/s (hover to see current wind gust speed)